Погода в Головино

Россия / Владимирская область     55°57′09″N   40°26′15″E
темп.,
°C
ветер,
м/с
пор.,
м/с
влажн.,
%
обл.,
%
осадки,
мм/ч
давл.,
гПа
погр.,
м
19 сентября, вс
вс1900:00+3в2582100 0.0 1026118
03:00+2в2886100 0.0 1025229
06:00+1всв2787100 0.0 1026195
09:00+5в4864100 0.0 1026445
12:00+8в4653100 0.0 10251020
15:00+9в4748100 0.0 10241112
18:00+8в4952100 0.0 1023724
21:00+7всв41156100 0.0 1023638
20 сентября, пн
пн2000:00+6в51256100 0.0 1022643
03:00+6в61259100 0.0 1022727
06:00+4в61478100 0.4 1021874
09:00+3в71490100 2.1 1021917
12:00+3в61597100 1.0 1022787
15:00+3в61497100 2.4 1021979
18:00+3в61497100 2.1 1021986
21:00+5в61395100 3.7 10201051
21 сентября, вт
вт2100:00+5в61491100 0.9 1019831
03:00+4в61493100 1.6 1018755
06:00+4в51494100 2.1 1017718
09:00+4в51494100 4.8 1017687
12:00+4в51295100 1.7 1016735
15:00+5всв51295100 4.7 1015734
18:00+5всв51295100 1.5 1014699
21:00+5всв41196100 2.3 1013630
22 сентября, ср
ср2200:00+5всв41097100 0.3 1013525
03:00+5всв3997100 1.8 1012494
06:00+5св4998100 2.5 1012517
09:00+5всв3897100 3.4 1012584
12:00+6всв3795100 0.0 1012449
15:00+6всв3695100 0.1 1012517
18:00+6св3797100 0.0 1012413
21:00+6св3698100 0.0 1012307
23 сентября, чт
чт2300:00+6св3798100 0.1 1011336
03:00+6св3699100 2.1 1010314
06:00+6всв2499100 3.0 1009212
09:00+7вюв2596100 3.1 1008259
12:00+8ююв3696100 0.3 1008538
15:00+8ююз2592100 0.3 1007471
18:00+8ююв3795100 0.3 1007399
21:00+7ю3993100 0.7 1007577